This is the latest recevied weather packets stored in our database for station/object F5ZQC-13. If no packets are shown the sender has not sent any weather packets the latest 1 day(s).
| Time | Temp. | Humidity | Pressure | Rain* | Wind** | Luminosity | Snow |
|---|---|---|---|---|---|---|---|
| 1777960124 | 12.22° C | 59% | 1010.1 hPa | 0 mm | 0 m/s | - | - |
| 1777960000 | 12.22° C | 57% | 1010.1 hPa | 0 mm | 0 m/s | - | - |
| 1777959880 | 12.22° C | 58% | 1010.3 hPa | 0 mm | 0.45 m/s, 337° | - | - |
| 1777959509 | 12.22° C | 57% | 1010.1 hPa | 0 mm | 1.34 m/s, 315° | - | - |
| 1777959385 | 12.22° C | 58% | 1010 hPa | 0 mm | 0.45 m/s, 315° | - | - |
| 1777959263 | 12.22° C | 58% | 1010.1 hPa | 0 mm | 0.89 m/s, 315° | - | - |
| 1777959142 | 12.22° C | 54% | 1009.9 hPa | 0 mm | 0.89 m/s, 315° | - | - |
| 1777959020 | 12.22° C | 55% | 1010 hPa | 0 mm | 0 m/s | - | - |
| 1777958775 | 12.22° C | 58% | 1009.9 hPa | 0 mm | 0.45 m/s, 315° | - | - |
| 1777958653 | 12.22° C | 58% | 1010 hPa | 0 mm | 0 m/s | - | - |
| 1777958409 | 12.22° C | 58% | 1009.7 hPa | 0 mm | 1.34 m/s, 270° | - | - |
| 1777958287 | 11.67° C | 53% | 1009.8 hPa | 0 mm | 0.45 m/s, 292° | - | - |
| 1777958269 | 11.67° C | 58% | 1009.7 hPa | 0 mm | 0.45 m/s, 270° | - | - |
| 1777958170 | 11.67° C | 59% | 1009.8 hPa | 0 mm | 1.79 m/s, 337° | - | - |
| 1777958042 | 11.67° C | 58% | 1009.7 hPa | 0 mm | 0.45 m/s, 270° | - | - |
| 1777957920 | 11.67° C | 63% | 1009.8 hPa | 0 mm | 0.45 m/s, 270° | - | - |
| 1777957675 | 11.67° C | 56% | 1009.7 hPa | 0 mm | 1.34 m/s, 303° | - | - |
| 1777957185 | 11.67° C | 56% | 1009.8 hPa | 0 mm | 1.34 m/s, 292° | - | - |
| 1777957062 | 11.67° C | 58% | 1009.5 hPa | 0 mm | 0 m/s | - | - |
| 1777956941 | 11.67° C | 57% | 1009.9 hPa | 0 mm | 1.34 m/s, 326° | - | - |
| 1777956697 | 11.67° C | 58% | 1009.7 hPa | 0 mm | 0.89 m/s, 303° | - | - |
| 1777956575 | 11.67° C | 58% | 1010 hPa | 0 mm | 0.89 m/s, 292° | - | - |
| 1777956330 | 11.67° C | 57% | 1009.9 hPa | 0 mm | 2.24 m/s, 292° | - | - |
| 1777956206 | 11.67° C | 58% | 1009.7 hPa | 0 mm | 1.79 m/s, 337° | - | - |
| 1777955964 | 11.67° C | 54% | 1009.9 hPa | 0 mm | 1.79 m/s, 292° | - | - |
* Rain since midnight (hover to see other rain measurements)
** Current wind speed in m/s (hover to see current wind gust speed)